Weather History for Ankeny, IA

Change the Weather History Date:

Monday, January 13, 2014

  Actual Average (KDSM) Record (KDSM)
Temperature  
Mean Temperature 38 °F 22 °F  
Max Temperature 46 °F 31 °F 62 °F (1987)
Min Temperature 30 °F 14 °F -20 °F (1916)
Degree Days  
Heating Degree Days 27 43  
Month to date heating degree days 552  
Since 1 July heating degree days 3019  
Cooling Degree Days 0 0  
Month to date cooling degree days 0  
Year to date cooling degree days 0  
Moisture  
Dew Point 28 °F    
Average Humidity 71    
Maximum Humidity 87    
Minimum Humidity 52    
Precipitation  
Precipitation 0.00 in 0.03 in 0.49 in (1979)
Month to date precipitation 0.41  
Year to date precipitation 0.41  
Snow  
Snow 0.00 in 0.30 in 5.90 in (1979)
Month to date snowfall 3.4  
Since 1 July snowfall 15.3  
Snow Depth -    
Sea Level Pressure  
Sea Level Pressure 29.71 in    
Wind  
Wind Speed 10 mph (West)    
Max Wind Speed 18 mph    
Max Gust Speed 25 mph    
Visibility 10 miles    
Events Rain    
T = Trace of Precipitation, MM = Missing Value Source: NWS Daily Summary

Daily Weather History Graph

Daily Weather History Graph

Search for Another Location

Airport:

Trip Planner

Search our weather history database for the weather conditions in past years. The results will help you decide how hot, cold, wet, or windy it might be!

Date:

Astronomy

Jan. 13, 2014 Rise Set
Actual Time 7:39 AM CST 5:06 PM CST
Civil Twilight 7:08 AM CST 5:37 PM CST
Nautical Twilight 6:34 AM CST 6:11 PM CST
Astronomical Twilight 6:01 AM CST 6:45 PM CST
Moon 3:22 PM CST (1/13) 5:28 AM CST (1/13)
Length of Visible Light 10h 28m
Length of Day
9h 26m
Waxing Gibbous, 95% of the Moon is Illuminated
Jan 13
Waxing Gibbous
Jan 15
Full
Jan 23
Last Quarter
Jan 30
New
Feb 6
First Quarter

Hourly Weather History & Observations

Time (CST) Temp. Windchill Dew Point Humidity Pressure Visibility Wind Dir Wind Speed Gust Speed Precip Events Conditions
12:15 AM 37.4 °F 30.8 °F 32.0 °F 81% 29.60 in 10.0 mi WNW 9.2 mph - N/A   Overcast
12:35 AM 39.2 °F 32.5 °F 32.0 °F 75% 29.61 in 10.0 mi West 10.4 mph - N/A   Overcast
12:55 AM 39.2 °F 35.0 °F 32.0 °F 75% 29.60 in 10.0 mi West 5.8 mph - N/A   Overcast
1:15 AM 42.8 °F 37.0 °F 33.8 °F 70% 29.61 in 9.0 mi WNW 10.4 mph 18.4 mph N/A Rain Light Rain
1:35 AM 46.4 °F 42.4 °F 32.0 °F 57% 29.61 in 10.0 mi West 8.1 mph 15.0 mph N/A   Overcast
1:55 AM 44.6 °F 40.7 °F 32.0 °F 61% 29.61 in 10.0 mi NW 6.9 mph - N/A   Overcast
2:15 AM 41.0 °F 36.4 °F 32.0 °F 70% 29.61 in 10.0 mi WNW 6.9 mph - N/A   Overcast
2:35 AM 42.8 °F 38.0 °F 32.0 °F 66% 29.61 in 10.0 mi West 8.1 mph - N/A   Overcast
2:55 AM 41.0 °F 36.4 °F 32.0 °F 70% 29.60 in 10.0 mi West 6.9 mph - N/A   Overcast
3:15 AM 41.0 °F 39.0 °F 32.0 °F 70% 29.59 in 10.0 mi West 3.5 mph - N/A   Overcast
3:35 AM 41.0 °F 35.8 °F 32.0 °F 70% 29.60 in 10.0 mi West 8.1 mph - N/A   Overcast
3:55 AM 41.0 °F 33.9 °F 32.0 °F 70% 29.62 in 10.0 mi West 12.7 mph - N/A   Overcast
4:15 AM 41.0 °F 34.3 °F 32.0 °F 70% 29.62 in 10.0 mi West 11.5 mph - N/A   Overcast
4:35 AM 41.0 °F 34.3 °F 32.0 °F 70% 29.63 in 10.0 mi West 11.5 mph - N/A   Overcast
4:55 AM 39.2 °F 32.5 °F 32.0 °F 75% 29.63 in 10.0 mi WNW 10.4 mph - N/A   Overcast
5:15 AM 39.2 °F 31.6 °F 32.0 °F 75% 29.64 in 10.0 mi WNW 12.7 mph 18.4 mph N/A   Overcast
5:35 AM 37.4 °F 29.8 °F 32.0 °F 81% 29.66 in 10.0 mi WNW 11.5 mph - N/A   Mostly Cloudy
5:55 AM 37.4 °F 30.3 °F 32.0 °F 81% 29.66 in 10.0 mi WNW 10.4 mph 16.1 mph N/A   Overcast
6:15 AM 37.4 °F 28.9 °F 30.2 °F 75% 29.67 in 10.0 mi NW 13.8 mph 20.7 mph N/A   Scattered Clouds
6:35 AM 37.4 °F 28.9 °F 30.2 °F 75% 29.68 in 10.0 mi NW 13.8 mph 23.0 mph N/A   Clear
6:55 AM 35.6 °F 26.2 °F 30.2 °F 81% 29.69 in 10.0 mi NW 15.0 mph 25.3 mph N/A   Clear
7:15 AM 35.6 °F 27.1 °F 30.2 °F 81% 29.69 in 10.0 mi WNW 12.7 mph - N/A   Clear
7:35 AM 33.8 °F 25.3 °F 30.2 °F 87% 29.70 in - NW 11.5 mph 17.3 mph N/A   Clear
7:55 AM 33.8 °F 23.9 °F 30.2 °F 87% 29.71 in 10.0 mi NW 15.0 mph - N/A   Mostly Cloudy
8:15 AM 33.8 °F 22.8 °F 30.2 °F 87% 29.72 in 10.0 mi NW 18.4 mph 24.2 mph N/A   Overcast
8:35 AM 33.8 °F 24.8 °F 30.2 °F 87% 29.73 in 10.0 mi NW 12.7 mph 18.4 mph N/A   Overcast
8:55 AM 33.8 °F 24.3 °F 30.2 °F 87% 29.75 in 10.0 mi NW 13.8 mph - N/A   Overcast
9:15 AM 33.8 °F 25.8 °F 30.2 °F 87% 29.75 in 10.0 mi NW 10.4 mph - N/A   Overcast
9:35 AM 33.8 °F 24.3 °F 30.2 °F 87% 29.77 in 10.0 mi WNW 13.8 mph - N/A   Overcast
9:55 AM 33.8 °F 24.8 °F 28.4 °F 81% 29.78 in 10.0 mi WNW 12.7 mph - N/A   Overcast
10:15 AM 33.8 °F 24.8 °F 28.4 °F 81% 29.78 in 10.0 mi WNW 12.7 mph - N/A   Overcast
10:35 AM 33.8 °F 24.8 °F 28.4 °F 81% 29.78 in 10.0 mi NW 12.7 mph - N/A   Overcast
10:55 AM 35.6 °F 27.5 °F 28.4 °F 75% 29.79 in 10.0 mi NW 11.5 mph 18.4 mph N/A   Overcast
11:15 AM 35.6 °F 26.6 °F 28.4 °F 75% 29.78 in 10.0 mi West 13.8 mph - N/A   Overcast
11:35 AM 35.6 °F 26.2 °F 28.4 °F 75% 29.78 in 10.0 mi WNW 15.0 mph - N/A   Overcast
11:55 AM 35.6 °F 27.1 °F 26.6 °F 70% 29.77 in 10.0 mi West 12.7 mph - N/A   Overcast
12:15 PM 35.6 °F 26.2 °F 26.6 °F 70% 29.77 in 10.0 mi WNW 15.0 mph - N/A   Mostly Cloudy
12:35 PM 37.4 °F 28.9 °F 26.6 °F 65% 29.76 in 10.0 mi West 13.8 mph - N/A   Partly Cloudy
12:55 PM 35.6 °F 27.1 °F 26.6 °F 70% 29.76 in 10.0 mi West 12.7 mph 19.6 mph N/A   Clear
1:15 PM 37.4 °F 29.3 °F 24.8 °F 60% 29.76 in 10.0 mi WNW 12.7 mph 19.6 mph N/A   Clear
1:35 PM 37.4 °F 29.3 °F 24.8 °F 60% 29.76 in 10.0 mi West 12.7 mph - N/A   Clear
1:55 PM 37.4 °F 29.3 °F 24.8 °F 60% 29.76 in 10.0 mi WNW 12.7 mph - N/A   Clear
2:15 PM 39.2 °F 32.0 °F 24.8 °F 56% 29.76 in 10.0 mi West 11.5 mph - N/A   Clear
2:35 PM 39.2 °F 33.0 °F 24.8 °F 56% 29.76 in 10.0 mi West 9.2 mph 16.1 mph N/A   Clear
2:55 PM 39.2 °F 31.6 °F 24.8 °F 56% 29.77 in 10.0 mi West 12.7 mph - N/A   Clear
3:15 PM 39.2 °F 31.6 °F 24.8 °F 56% 29.77 in 10.0 mi West 12.7 mph - N/A   Clear
3:35 PM 39.2 °F 32.0 °F 23.0 °F 52% 29.77 in 10.0 mi WNW 11.5 mph 17.3 mph N/A   Clear
3:55 PM 39.2 °F 33.0 °F 23.0 °F 52% 29.77 in 10.0 mi West 9.2 mph - N/A   Clear
4:15 PM 39.2 °F 32.5 °F 23.0 °F 52% 29.77 in 10.0 mi West 10.4 mph - N/A   Clear
4:35 PM 39.2 °F 33.0 °F 23.0 °F 52% 29.78 in 10.0 mi West 9.2 mph - N/A   Clear
4:55 PM 37.4 °F 33.8 °F 23.0 °F 56% 29.79 in 10.0 mi West 4.6 mph - N/A   Clear
5:15 PM 35.6 °F 31.7 °F 23.0 °F 60% 29.78 in 10.0 mi WSW 4.6 mph - N/A   Clear
5:35 PM 33.8 °F - 23.0 °F 65% 29.77 in 10.0 mi Calm Calm - N/A   Clear
5:55 PM 30.2 °F 25.4 °F 24.8 °F 80% 29.76 in 10.0 mi SSE 4.6 mph - N/A   Clear
6:15 PM 32.0 °F 27.5 °F 23.0 °F 69% 29.76 in 10.0 mi SSW 4.6 mph - N/A   Clear
6:35 PM 33.8 °F 27.0 °F 23.0 °F 65% 29.76 in 10.0 mi SSW 8.1 mph - N/A   Clear
6:55 PM 33.8 °F 27.7 °F 23.0 °F 65% 29.75 in 10.0 mi SSW 6.9 mph - N/A   Mostly Cloudy
7:15 PM 35.6 °F 28.0 °F 23.0 °F 60% 29.74 in 10.0 mi SSW 10.4 mph - N/A   Overcast
7:35 PM 35.6 °F 29.2 °F 23.0 °F 60% 29.74 in - SSW 8.1 mph - N/A   Overcast
7:55 PM 35.6 °F 28.0 °F 23.0 °F 60% 29.74 in 10.0 mi SSW 10.4 mph - N/A   Overcast
8:15 PM 33.8 °F 27.0 °F 23.0 °F 65% 29.73 in 10.0 mi South 8.1 mph - N/A   Overcast
8:35 PM 33.8 °F 26.4 °F 24.8 °F 70% 29.72 in 10.0 mi South 9.2 mph 15.0 mph N/A   Scattered Clouds
8:55 PM 33.8 °F 26.4 °F 24.8 °F 70% 29.72 in 10.0 mi South 9.2 mph - N/A   Clear
9:15 PM 33.8 °F 25.8 °F 24.8 °F 70% 29.71 in 10.0 mi South 10.4 mph - N/A   Clear
9:35 PM 32.0 °F 24.2 °F 24.8 °F 75% 29.70 in 10.0 mi South 9.2 mph - N/A   Clear
9:55 PM 32.0 °F 24.2 °F 24.8 °F 75% 29.70 in 10.0 mi South 9.2 mph - N/A   Clear
10:15 PM 32.0 °F 23.6 °F 26.6 °F 80% 29.69 in 10.0 mi South 10.4 mph - N/A   Clear
10:35 PM 32.0 °F 24.2 °F 26.6 °F 80% 29.69 in 10.0 mi South 9.2 mph - N/A   Clear
10:55 PM 32.0 °F 23.6 °F 26.6 °F 80% 29.68 in 10.0 mi South 10.4 mph - N/A   Clear
11:15 PM 32.0 °F 23.6 °F 26.6 °F 80% 29.67 in 10.0 mi South 10.4 mph - N/A   Clear
11:35 PM 33.8 °F 25.8 °F 26.6 °F 75% 29.66 in 10.0 mi South 10.4 mph - N/A   Clear
11:55 PM 33.8 °F 27.7 °F 26.6 °F 75% 29.65 in 10.0 mi South 6.9 mph - N/A   Clear